Weather History for Phoenix, AZ

Change the Weather History Date:

Friday, January 17, 2014

  Actual Average Record
Temperature  
Mean Temperature 62 °F 56 °F  
Max Temperature 79 °F 67 °F 83 °F (1976)
Min Temperature 44 °F 46 °F 26 °F (1964)
Degree Days  
Heating Degree Days 3 9  
Month to date heating degree days 123 159  
Since 1 July heating degree days 440 560  
Cooling Degree Days 0 0  
Month to date cooling degree days 0 0  
Year to date cooling degree days 0 0  
Growing Degree Days 12 (Base 50)    
Moisture  
Dew Point 21 °F    
Average Humidity 29    
Maximum Humidity 50    
Minimum Humidity 7    
Precipitation  
Precipitation 0.00 in 0.03 in 1.07 in (1933)
Month to date precipitation 0.00 0.52  
Year to date precipitation 0.00 0.52  
Snow  
Snow 0.00 in - - ()
Month to date snowfall 0.0  
Year to date snowfall 0.0  
Since 1 July snowfall 0.0  
Snow Depth 0.00 in    
Sea Level Pressure  
Sea Level Pressure 30.07 in    
Wind  
Wind Speed 4 mph (SW)    
Max Wind Speed 10 mph    
Max Gust Speed 16 mph    
Visibility 10 miles    
Events      
T = Trace of Precipitation, MM = Missing Value Source: NWS Daily Summary

Daily Weather History Graph

Daily Weather History Graph

Search for Another Location

Airport:

Trip Planner

Search our weather history database for the weather conditions in past years. The results will help you decide how hot, cold, wet, or windy it might be!

Date:

Astronomy

Jan. 17, 2014 Rise Set
Actual Time 7:31 AM MST 5:45 PM MST
Civil Twilight 7:04 AM MST 6:12 PM MST
Nautical Twilight 6:34 AM MST 6:42 PM MST
Astronomical Twilight 6:04 AM MST 7:12 PM MST
Moon 7:27 PM MST (1/17) 8:07 AM MST (1/17)
Length of Visible Light 11h 07m
Length of Day
10h 13m
Full, 98% of the Moon is Illuminated
Jan 17
Full
Jan 23
Last Quarter
Jan 30
New
Feb 6
First Quarter
Feb 14
Full

Hourly Weather History & Observations

Time (MST) Temp. Windchill Dew Point Humidity Pressure Visibility Wind Dir Wind Speed Gust Speed Precip Events Conditions
12:51 AM 53.1 °F - 28.9 °F 40% 30.07 in 10.0 mi East 3.5 mph - N/A   Clear
1:51 AM 48.9 °F - 30.9 °F 50% 30.06 in 10.0 mi SW 3.5 mph - N/A   Clear
2:51 AM 52.0 °F - 27.0 °F 38% 30.08 in 10.0 mi NW 3.5 mph - N/A   Clear
3:51 AM 48.0 °F - 27.0 °F 44% 30.07 in 10.0 mi East 4.6 mph - N/A   Clear
4:51 AM 46.9 °F - 28.9 °F 50% 30.08 in 10.0 mi Calm Calm - N/A   Clear
5:51 AM 45.0 °F 43.5 °F 26.1 °F 48% 30.11 in 10.0 mi SSW 3.5 mph - N/A   Clear
6:51 AM 46.0 °F 43.9 °F 24.1 °F 42% 30.12 in 10.0 mi West 4.6 mph - N/A   Clear
7:51 AM 46.0 °F 44.8 °F 25.0 °F 44% 30.14 in 10.0 mi East 3.5 mph - N/A   Clear
8:51 AM 52.0 °F - 26.1 °F 37% 30.15 in 10.0 mi Calm Calm - N/A   Clear
9:51 AM 57.0 °F - 24.1 °F 28% 30.17 in 10.0 mi Calm Calm - N/A   Clear
10:51 AM 64.0 °F - 23.0 °F 21% 30.16 in 10.0 mi Calm Calm - N/A   Clear
11:51 AM 69.1 °F - 21.0 °F 16% 30.13 in 10.0 mi Calm Calm - N/A   Clear
12:51 PM 73.9 °F - 12.9 °F 10% 30.08 in 10.0 mi Variable 5.8 mph - N/A   Clear
1:51 PM 75.9 °F - 10.9 °F 8% 30.05 in 10.0 mi East 9.2 mph - N/A   Clear
2:51 PM 77.0 °F - 10.9 °F 8% 30.04 in 10.0 mi ENE 4.6 mph - N/A   Clear
3:51 PM 78.1 °F - 9.0 °F 7% 30.03 in 10.0 mi Variable 3.5 mph - N/A   Clear
4:51 PM 77.0 °F - 10.9 °F 8% 30.01 in 10.0 mi WSW 3.5 mph - N/A   Clear
5:51 PM 73.0 °F - 12.9 °F 10% 30.01 in 10.0 mi WSW 3.5 mph - N/A   Clear
6:51 PM 66.9 °F - 18.0 °F 15% 30.02 in 10.0 mi SW 5.8 mph - N/A   Clear
7:51 PM 64.0 °F - 21.9 °F 20% 30.03 in 10.0 mi West 3.5 mph - N/A   Clear
8:51 PM 63.0 °F - 21.0 °F 20% 30.04 in 10.0 mi West 4.6 mph - N/A   Clear
9:51 PM 60.1 °F - 21.0 °F 22% 30.04 in 10.0 mi West 3.5 mph - N/A   Clear
10:51 PM 57.0 °F - 23.0 °F 27% 30.04 in 10.0 mi SW 4.6 mph - N/A   Clear
11:51 PM 55.0 °F - 28.0 °F 35% 30.04 in 10.0 mi East 4.6 mph - N/A   Clear